• En España
  • Lista de países
  • Para 7 días
  • Temperatura del agua
  • Mapa Satelital
  • El tiempo en el mapa
  • Informadores
  • user-avatar
    Iniciar sesión

    Tiempo cada hora Seglino

    Hoy, 16 Agosto, Jueves

    Tiempo Temperatura Precipitaciones Viento Presión Humedad
    00:00 +15°C° 0 mm 2 mps 745 mmHg 98%
    01:00 +15°C° 0 mm 2 mps 746 mmHg 98%
    02:00 +14°C° 0 mm 2 mps 746 mmHg 97%
    03:00 +14°C° 0 mm 2 mps 746 mmHg 97%
    04:00 +13°C° 0 mm 2 mps 747 mmHg 97%
    05:00 +13°C° 0 mm 2 mps 747 mmHg 97%
    06:00 +14°C° 0 mm 2 mps 748 mmHg 94%
    07:00 +15°C° 0 mm 1 mps 748 mmHg 90%
    08:00 +16°C° 0 mm 1 mps 749 mmHg 85%
    09:00 +18°C° 0 mm 2 mps 749 mmHg 75%
    10:00 +19°C° 0 mm 2 mps 749 mmHg 66%
    11:00 +21°C° 0 mm 2 mps 750 mmHg 56%
    12:00 +23°C° 0 mm 2 mps 750 mmHg 54%
    13:00 +23°C° 0 mm 2 mps 750 mmHg 51%
    14:00 +24°C° 0 mm 2 mps 750 mmHg 48%
    15:00 +24°C° 0 mm 2 mps 750 mmHg 52%
    16:00 +23°C° 0 mm 1 mps 751 mmHg 55%
    17:00 +23°C° 0 mm 1 mps 751 mmHg 59%
    18:00 +21°C° 0 mm 1 mps 751 mmHg 65%
    19:00 +19°C° 0 mm 1 mps 751 mmHg 72%
    20:00 +15°C° 0 mm 1 mps 752 mmHg 78%
    21:00 +15°C° 0 mm 1 mps 752 mmHg 80%
    22:00 +13°C° 0 mm 0 mps 752 mmHg 82%
    23:00 +12°C° 0 mm 0 mps 753 mmHg 84%

    Mañana, 17 Agosto, Viernes

    Tiempo Temperatura Precipitaciones Viento Presión Humedad
    00:00 +12°C° 0 mm 0 mps 753 mmHg 86%
    01:00 +12°C° 0 mm 0 mps 753 mmHg 87%
    02:00 +11°C° 0 mm 0 mps 753 mmHg 89%
    03:00 +11°C° 0 mm 0 mps 754 mmHg 89%
    04:00 +11°C° 0 mm 0 mps 754 mmHg 88%
    05:00 +11°C° 0 mm 0 mps 754 mmHg 88%
    06:00 +14°C° 0 mm 0 mps 754 mmHg 80%
    07:00 +18°C° 0 mm 1 mps 754 mmHg 72%
    08:00 +20°C° 0 mm 1 mps 755 mmHg 64%
    09:00 +22°C° 0 mm 1 mps 755 mmHg 58%
    10:00 +23°C° 0 mm 1 mps 754 mmHg 52%
    11:00 +25°C° 0 mm 1 mps 754 mmHg 47%
    12:00 +25°C° 0 mm 1 mps 754 mmHg 45%
    13:00 +25°C° 0 mm 1 mps 754 mmHg 44%
    14:00 +26°C° 0 mm 1 mps 754 mmHg 43%
    15:00 +25°C° 0 mm 1 mps 754 mmHg 47%
    16:00 +25°C° 0 mm 1 mps 753 mmHg 51%
    17:00 +24°C° 0 mm 1 mps 753 mmHg 56%
    18:00 +22°C° 0 mm 1 mps 753 mmHg 62%
    19:00 +20°C° 0 mm 1 mps 753 mmHg 67%
    20:00 +16°C° 0 mm 1 mps 753 mmHg 73%
    21:00 +16°C° 0 mm 1 mps 753 mmHg 75%
    22:00 +15°C° 0 mm 1 mps 753 mmHg 77%
    23:00 +14°C° 0 mm 1 mps 753 mmHg 80%

    Pasado mañana, 18 Agosto, Sábado

    Tiempo Temperatura Precipitaciones Viento Presión Humedad
    00:00 +14°C° 0 mm 1 mps 753 mmHg 81%
    01:00 +13°C° 0 mm 1 mps 754 mmHg 83%
    02:00 +13°C° 0 mm 1 mps 754 mmHg 85%
    03:00 +13°C° 0 mm 1 mps 754 mmHg 85%
    04:00 +13°C° 0 mm 1 mps 754 mmHg 86%
    05:00 +12°C° 0 mm 1 mps 754 mmHg 87%
    06:00 +14°C° 0 mm 1 mps 754 mmHg 80%
    07:00 +16°C° 0 mm 2 mps 754 mmHg 73%
    08:00 +18°C° 0 mm 2 mps 754 mmHg 66%
    09:00 +20°C° 0 mm 2 mps 754 mmHg 60%
    10:00 +23°C° 0 mm 2 mps 753 mmHg 54%
    11:00 +24°C° 0 mm 2 mps 753 mmHg 48%
    12:00 +25°C° 0 mm 2 mps 753 mmHg 47%
    13:00 +25°C° 0 mm 3 mps 753 mmHg 45%
    14:00 +26°C° 0 mm 3 mps 752 mmHg 44%
    15:00 +26°C° 0 mm 2 mps 752 mmHg 49%
    16:00 +25°C° 0 mm 2 mps 752 mmHg 53%
    17:00 +25°C° 0 mm 2 mps 751 mmHg 58%
    18:00 +21°C° 0 mm 2 mps 751 mmHg 64%
    19:00 +19°C° 0 mm 2 mps 751 mmHg 71%
    20:00 +17°C° 0 mm 2 mps 751 mmHg 78%
    21:00 +17°C° 0 mm 2 mps 751 mmHg 80%
    22:00 +16°C° 0 mm 2 mps 751 mmHg 82%
    23:00 +15°C° 0 mm 2 mps 751 mmHg 84%

    19 Agosto, Domingo

    Tiempo Temperatura Precipitaciones Viento Presión Humedad
    00:00 +15°C° 0 mm 2 mps 751 mmHg 85%
    01:00 +15°C° 0 mm 2 mps 751 mmHg 87%
    02:00 +14°C° 0 mm 2 mps 751 mmHg 89%
    03:00 +14°C° 0 mm 2 mps 751 mmHg 90%
    04:00 +14°C° 0 mm 2 mps 751 mmHg 91%
    05:00 +14°C° 0 mm 2 mps 751 mmHg 91%
    06:00 +16°C° 0 mm 2 mps 750 mmHg 84%
    07:00 +18°C° 0 mm 3 mps 750 mmHg 77%
    08:00 +20°C° 0 mm 3 mps 750 mmHg 70%
    09:00 +22°C° 0 mm 3 mps 750 mmHg 64%
    10:00 +23°C° 0 mm 4 mps 749 mmHg 58%
    11:00 +25°C° 0 mm 4 mps 749 mmHg 52%
    12:00 +26°C° 0,1 mm 4 mps 748 mmHg 54%
    13:00 +26°C° 0,1 mm 4 mps 748 mmHg 56%
    14:00 +26°C° 0,1 mm 4 mps 747 mmHg 59%
    15:00 +25°C° 0,7 mm 4 mps 747 mmHg 67%
    16:00 +24°C° 0,7 mm 3 mps 747 mmHg 76%
    17:00 +22°C° 0,7 mm 3 mps 746 mmHg 85%
    18:00 +21°C° 1,3 mm 3 mps 746 mmHg 88%
    19:00 +20°C° 1,3 mm 3 mps 746 mmHg 91%
    20:00 +19°C° 1,3 mm 2 mps 746 mmHg 94%
    21:00 +18°C° 0,2 mm 2 mps 746 mmHg 95%
    22:00 +18°C° 0,2 mm 2 mps 746 mmHg 96%
    23:00 +17°C° 0,2 mm 2 mps 746 mmHg 98%

    20 Agosto, Lunes

    Tiempo Temperatura Precipitaciones Viento Presión Humedad
    00:00 +17°C° 0 mm 2 mps 746 mmHg 98%
    01:00 +17°C° 0 mm 2 mps 746 mmHg 98%
    02:00 +16°C° 0 mm 2 mps 746 mmHg 98%
    03:00 +16°C° 0,1 mm 2 mps 746 mmHg 98%
    04:00 +16°C° 0,1 mm 2 mps 747 mmHg 98%
    05:00 +16°C° 0,1 mm 2 mps 747 mmHg 98%
    06:00 +16°C° 0,1 mm 2 mps 747 mmHg 96%
    07:00 +17°C° 0,1 mm 2 mps 747 mmHg 94%
    08:00 +17°C° 0,1 mm 2 mps 748 mmHg 91%
    09:00 +19°C° 0 mm 2 mps 748 mmHg 83%
    10:00 +20°C° 0 mm 2 mps 748 mmHg 74%
    11:00 +21°C° 0 mm 2 mps 748 mmHg 65%
    12:00 +23°C° 0 mm 2 mps 748 mmHg 61%
    13:00 +23°C° 0 mm 2 mps 748 mmHg 57%
    14:00 +24°C° 0 mm 2 mps 748 mmHg 53%
    15:00 +23°C° 0 mm 2 mps 748 mmHg 56%
    16:00 +23°C° 0 mm 2 mps 748 mmHg 59%
    17:00 +23°C° 0 mm 1 mps 748 mmHg 62%
    18:00 +21°C° 0 mm 1 mps 748 mmHg 68%
    19:00 +19°C° 0 mm 1 mps 748 mmHg 73%
    20:00 +16°C° 0 mm 1 mps 748 mmHg 79%
    21:00 +15°C° 0 mm 1 mps 748 mmHg 81%
    22:00 +15°C° 0 mm 1 mps 748 mmHg 84%
    23:00 +14°C° 0 mm 1 mps 748 mmHg 86%

    21 Agosto, Martes

    Tiempo Temperatura Precipitaciones Viento Presión Humedad
    00:00 +14°C° 0 mm 1 mps 748 mmHg 87%
    01:00 +13°C° 0 mm 1 mps 748 mmHg 88%
    02:00 +12°C° 0 mm 0 mps 748 mmHg 89%
    03:00 +12°C° 0 mm 0 mps 748 mmHg 89%
    04:00 +12°C° 0 mm 0 mps 749 mmHg 89%
    05:00 +11°C° 0 mm 0 mps 749 mmHg 90%
    06:00 +15°C° 0 mm 1 mps 749 mmHg 82%
    07:00 +18°C° 0 mm 1 mps 749 mmHg 75%
    08:00 +20°C° 0 mm 1 mps 749 mmHg 67%
    09:00 +21°C° 0 mm 1 mps 748 mmHg 62%
    10:00 +21°C° 0 mm 2 mps 748 mmHg 56%
    11:00 +23°C° 0 mm 2 mps 748 mmHg 50%
    12:00 +24°C° 0 mm 2 mps 748 mmHg 49%
    13:00 +24°C° 0 mm 2 mps 747 mmHg 48%
    14:00 +24°C° 0 mm 3 mps 747 mmHg 46%
    15:00 +24°C° 0 mm 2 mps 747 mmHg 52%
    16:00 +24°C° 0 mm 2 mps 746 mmHg 58%
    17:00 +23°C° 0 mm 1 mps 746 mmHg 64%
    18:00 +21°C° 0 mm 2 mps 746 mmHg 69%
    19:00 +20°C° 0 mm 2 mps 746 mmHg 75%
    20:00 +19°C° 0 mm 2 mps 745 mmHg 80%
    21:00 +18°C° 0 mm 3 mps 745 mmHg 84%
    22:00 +18°C° 0 mm 3 mps 745 mmHg 87%
    23:00 +18°C° 0 mm 3 mps 745 mmHg 91%
    Mostrar más